Lid_Strength_Index
-1 -1 2 4 7 7 11 10 8 9 8 5 5 6 6 6 8 10 1 0 -0 -0 -1 -1 -1 -2 -1 -1 -1 -1 -1 -1 -2 -2 -1 -1 -1 -1 -1 -1 -1 -1 -1 -1 -1 -1 -1 -1 -1
2 2 3 5 8 9 10 9 9 8 6 5 5 5 6 7 4 4 2 0 -1 -1 -1 -1 -1 -1 -1 -1 -1 -1 -1 -1 -1 -1 -1 -1 -1 -1 -1 -1 -1 -1 -1 -1 -1 -1 -1 -1 -2
2 5 5 6 8 10 9 8 7 6 5 5 6 4 5 6 3 3 1 -0 -1 -1 -1 -1 -1 -1 -1 -1 -1 -1 -1 -1 -1 -1 -1 -1 -1 -1 -1 -1 -1 -1 -1 -1 -1 -1 -2 -2 -2
4 5 6 8 10 9 8 7 6 7 5 5 5 7 4 2 3 1 -0 -0 -0 -0 -1 -1 -1 -1 -1 -1 -1 -1 -1 -1 -1 -1 -1 -1 -1 -1 -2 -1 -1 -1 -1 -1 -1 -2 -2 -2 -2
6 6 8 9 10 9 7 6 6 7 6 6 5 7 6 3 1 1 0 -0 0 -0 -1 -1 -1 -1 -1 -1 -1 -1 -1 -1 -1 -1 -1 -1 -1 -1 -1 -1 -1 -1 -1 -1 -2 -2 -3 -2 -1
6 7 9 10 10 9 6 5 6 6 6 6 6 6 5 2 2 1 0 -0 -0 -0 -1 -1 -1 -1 -1 -1 -1 -1 -1 -2 -1 -1 -1 -1 -1 -1 -1 -1 -1 -1 -1 -1 -2 -2 -1 -1 -2
7 8 10 10 10 9 7 5 6 6 6 6 4 7 5 3 1 0 0 -0 -0 -1 -1 -1 -1 -2 -1 -1 -1 -1 -2 -2 -2 -2 -2 -1 -1 -1 -1 -1 -1 -1 -1 -1 -1 -2 -2 -2 -2
6 7 11 10 10 10 6 6 5 6 6 3 3 7 6 3 1 1 0 0 -0 -0 -0 -0 -1 -1 -1 -1 -1 -1 -1 -2 -2 -2 -1 -2 -1 -1 -1 -2 -1 -1 -1 -1 -2 -2 -1 -1 -0
7 8 10 10 10 8 6 6 5 4 5 5 4 4 3 2 2 1 1 1 1 0 -0 -1 -1 -1 -1 -1 -1 -1 -1 -1 -1 -1 -1 -2 -2 -2 -1 -1 -1 -1 -1 -1 -1 -1 0 1 2
7 9 9 8 8 7 5 6 5 6 6 6 5 3 2 2 2 2 2 2 2 1 0 -0 -1 -1 -1 -1 -1 -1 -1 -2 -2 -2 -2 -2 -2 -2 -2 -1 -1 -1 -1 -1 -0 1 2 2 1
8 9 8 8 7 6 7 6 5 6 6 5 5 5 3 3 2 2 3 2 2 1 0 -0 -0 -1 -1 -1 -1 -1 -1 -1 -1 -2 -2 -2 -2 -2 -2 -1 -1 -1 1 -0 0 1 1 2 2
8 7 7 7 8 7 6 5 6 5 5 4 3 3 3 4 3 3 2 2 1 1 0 -0 -1 -1 -1 -1 -1 -1 -1 -1 -1 -1 -1 -2 -1 -1 -1 -0 0 -0 0 1 1 1 2 3 3
7 7 7 7 8 7 5 5 5 6 4 3 3 3 3 3 3 2 2 1 1 1 1 0 -1 -1 -1 -1 -1 -1 -1 -1 -1 -1 -2 -2 -1 -1 -0 0 0 1 0 1 2 2 3 4 4
6 6 7 7 7 8 8 6 5 5 3 4 4 4 3 3 3 2 2 2 2 1 1 0 -0 -1 -1 -1 -1 -1 -1 -1 -1 -1 -2 -1 -1 -0 0 1 1 1 1 2 3 4 4 4 3
6 7 7 7 8 6 5 7 7 4 4 4 4 4 3 3 2 3 2 2 1 1 0 0 -0 -1 -1 -1 -1 -1 -1 -1 -1 -1 -2 -1 -1 -0 0 1 1 1 2 4 5 4 2 3 3
7 7 8 7 8 6 6 9 5 4 4 5 4 4 4 3 3 2 2 1 1 1 1 0 0 -0 -0 -1 -1 -1 -1 -1 -1 -1 -1 -0 0 0 0 1 2 4 5 5 4 2 3 3 2
8 9 8 8 6 6 6 8 5 6 4 5 5 4 4 4 3 2 1 1 1 1 1 0 -0 0 -0 -1 -1 -1 -1 -1 0 -0 0 0 1 1 1 2 5 5 5 3 3 3 2 2 2
10 9 8 8 7 7 8 7 6 5 6 5 5 4 4 4 3 2 2 1 1 0 0 0 0 -0 -0 -0 -0 0 0 1 1 1 1 1 2 2 2 5 5 4 2 2 2 1 1 2 2
8 8 9 7 6 7 7 7 6 5 5 5 5 5 4 4 3 2 2 1 1 1 1 0 1 0 0 1 1 1 2 2 2 2 2 2 2 3 4 5 3 1 1 2 1 1 2 2 2
8 9 8 7 7 7 7 7 6 6 6 6 5 5 5 4 4 3 3 2 1 1 1 1 0 0 0 0 0 1 2 2 1 1 1 2 4 5 5 2 1 1 0 0 1 1 3 3 2
8 9 8 8 7 7 8 8 7 6 6 6 5 4 4 4 5 4 3 3 2 2 1 1 1 0 -0 -0 1 1 1 1 2 2 3 4 5 4 2 1 -0 -0 0 1 1 1 2 4 3
9 7 7 8 9 10 8 11 8 7 7 7 6 5 5 4 4 4 4 3 3 2 1 1 0 0 -0 -0 0 1 1 2 2 3 6 5 3 2 1 0 0 0 1 1 2 2 2 2 4
8 7 7 8 9 9 9 10 8 8 7 6 6 6 5 4 4 4 4 3 3 2 1 1 0 0 0 -0 -0 1 1 4 6 6 4 3 2 2 2 2 2 1 2 2 2 2 2 2 3
6 7 8 8 9 12 9 10 9 8 7 7 7 6 5 5 4 4 3 3 3 1 1 1 1 1 1 1 1 2 3 5 4 4 4 3 2 2 2 2 1 1 2 2 2 1 2 2 3
7 8 12 12 12 12 10 10 9 6 6 6 6 6 5 5 4 4 4 4 3 2 2 2 3 4 3 3 4 4 3 2 3 3 3 3 3 3 2 2 2 2 1 1 2 2 3 4 5
8 8 11 15 14 12 10 11 9 6 6 6 6 5 5 5 4 4 4 3 3 2 2 3 4 5 5 5 4 2 3 4 3 3 3 3 3 2 2 2 2 2 2 2 2 3 4 4 4
8 10 7 11 11 12 10 9 7 6 7 7 7 6 6 5 5 4 4 3 3 3 4 4 4 4 4 3 4 3 3 4 3 3 3 3 2 2 2 2 2 2 3 3 2 4 3 3 3
7 6 10 10 14 15 12 11 10 8 7 6 7 7 6 5 5 4 4 4 3 3 4 4 3 3 4 4 4 4 4 4 3 3 3 2 2 2 3 3 3 2 2 2 2 3 3 4 4
8 8 9 9 10 13 14 11 7 7 6 6 6 6 6 6 5 5 5 3 3 4 4 4 3 4 4 4 4 4 4 4 3 3 2 2 2 2 3 3 3 3 2 2 2 2 2 3 4
7 8 8 11 12 11 12 11 6 6 5 5 6 6 5 5 5 5 4 3 3 4 4 3 3 4 4 4 4 4 4 3 3 2 1 1 2 2 2 3 3 3 2 2 2 2 3 3 3